Galloway, OH

6:28 AM EST on January 23, 2017 (GMT -0500)
Bolton

Weather History for KTZR - January, 2012

Change the Weather History Date:

Tuesday, January 31, 2012

  Actual Average Record
Temperature  
Mean Temperature 52 °F -  
Max Temperature 60 °F 36 °F 66 °F (2002)
Min Temperature 43 °F 22 °F -5 °F (2004)
Degree Days  
Heating Degree Days 14    
Growing Degree Days 2 (Base 50)    
Moisture  
Dew Point 34 °F    
Average Humidity 61    
Maximum Humidity 90    
Minimum Humidity 42    
Precipitation  
Precipitation 0.02 in - - ()
Sea Level Pressure  
Sea Level Pressure 30.06 in    
Wind  
Wind Speed 18 mph (SSW)    
Max Wind Speed 23 mph    
Max Gust Speed 32 mph    
Visibility 10 miles    
Events Rain    
Averages and records for this station are not official NWS values.
T = Trace of Precipitation, MM = Missing Value Source: NWS Daily Summary

Daily Weather History Graph

Daily Weather History Graph

Search for Another Location

Airport or City:

Trip Planner

Search our weather history database for the weather conditions in past years. The results will help you decide how hot, cold, wet, or windy it might be!

Date:

Astronomy

Jan. 31, 2012 Rise Set
Actual Time 7:42 AM EST 5:50 PM EST
Civil Twilight 7:13 AM EST 6:18 PM EST
Nautical Twilight 6:41 AM EST 6:51 PM EST
Astronomical Twilight 6:09 AM EST 7:23 PM EST
Moon 11:39 AM EST (1/31) 1:29 AM EST (1/31)
Length of Visible Light 11h 05m
Length of Day
10h 07m
First Quarter, 55% of the Moon is Illuminated
Jan 31
First Quarter
Feb 7
Full
Feb 14
Last Quarter
Feb 21
New
Feb 29
First Quarter

Hourly Weather History & Observations

Time (EST) Temp. Windchill Dew Point Humidity Pressure Visibility Wind Dir Wind Speed Gust Speed Precip Events Conditions
12:15 AM 45.5 °F 37.6 °F 29.8 °F 54% 30.07 in 10.0 mi SSW 20.7 mph 27.6 mph N/A   Clear
12:35 AM 45.7 °F 37.8 °F 29.3 °F 53% 30.07 in 10.0 mi SSW 20.7 mph 27.6 mph N/A   Clear
12:55 AM 45.5 °F 37.1 °F 29.5 °F 54% 30.07 in 10.0 mi SSW 23.0 mph 29.9 mph N/A   Clear
1:15 AM 45.7 °F 37.4 °F 29.3 °F 53% 30.06 in 10.0 mi SSW 23.0 mph 31.1 mph N/A   Clear
1:35 AM 45.3 °F 37.3 °F 29.7 °F 54% 30.06 in 10.0 mi SSW 20.7 mph 27.6 mph N/A   Clear
1:55 AM 45.0 °F 36.6 °F 29.3 °F 54% 30.07 in 10.0 mi SSW 21.9 mph 29.9 mph N/A   Clear
2:15 AM 44.6 °F 36.9 °F 29.3 °F 55% 30.07 in 10.0 mi SSW 18.4 mph 27.6 mph N/A   Clear
2:35 AM 44.2 °F 36.2 °F 29.5 °F 56% 30.07 in 10.0 mi SSW 19.6 mph 27.6 mph N/A   Clear
2:55 AM 44.4 °F 36.1 °F 29.5 °F 56% 30.07 in 10.0 mi SW 20.7 mph 26.5 mph N/A   Clear
3:15 AM 44.2 °F 36.7 °F 29.7 °F 57% 30.07 in 10.0 mi SW 17.3 mph 25.3 mph N/A   Clear
3:35 AM 44.2 °F 36.4 °F 29.8 °F 57% 30.07 in 10.0 mi SW 18.4 mph 26.5 mph N/A   Clear
3:55 AM 44.4 °F 37.2 °F 30.0 °F 57% 30.07 in 10.0 mi SW 16.1 mph 20.7 mph N/A   Clear
4:15 AM 44.4 °F 37.2 °F 30.2 °F 57% 30.08 in 10.0 mi SSW 16.1 mph 24.2 mph N/A   Clear
4:35 AM 44.1 °F 37.1 °F 30.4 °F 59% 30.08 in 10.0 mi SSW 15.0 mph 21.9 mph N/A   Clear
4:55 AM 44.1 °F 37.1 °F 30.4 °F 59% 30.09 in 10.0 mi SSW 15.0 mph 24.2 mph N/A   Clear
5:35 AM 43.7 °F 36.9 °F 30.6 °F 60% 30.09 in 10.0 mi SSW 13.8 mph 21.9 mph N/A   Clear
5:55 AM 43.0 °F 35.7 °F 30.6 °F 62% 30.09 in 10.0 mi SSW 15.0 mph 19.6 mph N/A   Clear
6:15 AM 43.0 °F 35.7 °F 30.6 °F 62% 30.09 in 10.0 mi SSW 15.0 mph - N/A   Clear
6:35 AM 43.3 °F 35.8 °F 30.2 °F 60% 30.10 in 10.0 mi SSW 16.1 mph 21.9 mph N/A   Clear
6:55 AM 43.7 °F 36.9 °F 29.8 °F 58% 30.10 in 10.0 mi SSW 13.8 mph 21.9 mph N/A   Clear
7:10 AM 44.6 °F 38.1 °F 28.4 °F 53% 30.11 in 10.0 mi SSW 13.8 mph 21.9 mph N/A   Clear
7:15 AM 44.1 °F 36.8 °F 29.5 °F 57% 30.11 in 10.0 mi SSW 16.1 mph 23.0 mph N/A   Clear
8:50 AM 46.4 °F 39.5 °F 28.4 °F 50% 30.13 in 10.0 mi SSW 17.3 mph 23.0 mph N/A   Clear
10:50 AM 51.8 °F - 30.2 °F 44% 30.12 in 10.0 mi SSW 18.4 mph 25.3 mph N/A   Clear
11:47 AM 53.6 °F - 32.0 °F 44% 30.09 in 10.0 mi SSW 20.7 mph 27.6 mph N/A   Clear
12:50 PM 55.4 °F - 33.8 °F 44% 30.06 in 10.0 mi SSW 15.0 mph 25.3 mph N/A   Mostly Cloudy
1:50 PM 59.0 °F - 35.6 °F 42% 30.04 in 10.0 mi SSW 18.4 mph 28.8 mph N/A   Scattered Clouds
2:55 PM 57.2 °F - 37.4 °F 48% 30.03 in 10.0 mi SSW 20.7 mph 26.5 mph N/A   Overcast
3:50 PM 60.8 °F - 37.4 °F 42% 30.01 in 10.0 mi SSW 17.3 mph 25.3 mph N/A   Mostly Cloudy
4:50 PM 57.2 °F - 39.2 °F 51% 30.01 in 10.0 mi SSW 18.4 mph 24.2 mph N/A   Overcast
5:50 PM 55.4 °F - 42.8 °F 63% 30.02 in 10.0 mi SSW 18.4 mph 32.2 mph N/A   Overcast
6:50 PM 53.6 °F - 44.6 °F 72% 30.03 in 10.0 mi SW 12.7 mph - N/A   Overcast
8:15 PM 53.6 °F - 38.1 °F 56% 30.01 in 10.0 mi SSW 19.6 mph 27.6 mph N/A   Overcast
8:35 PM 52.3 °F - 38.7 °F 60% 30.02 in 10.0 mi SSW 21.9 mph 28.8 mph N/A Rain Light Rain
9:15 PM 50.5 °F - 40.5 °F 68% 30.03 in 10.0 mi SW 17.3 mph 27.6 mph N/A   Overcast
9:35 PM 49.1 °F - 41.7 °F 76% 30.04 in 10.0 mi SW 17.3 mph 26.5 mph N/A Rain Light Rain
9:55 PM 48.7 °F - 42.1 °F 78% 30.05 in 10.0 mi SW 18.4 mph 29.9 mph N/A   Drizzle
10:15 PM 47.3 °F - 43.3 °F 86% 30.04 in 7.0 mi SW 13.8 mph 26.5 mph 0.01 in Rain Light Rain
10:35 PM 46.8 °F - 43.7 °F 89% 30.04 in 10.0 mi SW 12.7 mph - 0.02 in Rain Light Rain
10:55 PM 46.8 °F - 43.5 °F 88% 30.04 in 10.0 mi SW 13.8 mph - 0.02 in   Overcast
11:15 PM 46.6 °F - 43.7 °F 90% 30.03 in 10.0 mi SSW 12.7 mph 20.7 mph N/A Rain Light Rain
11:35 PM 46.8 °F - 42.8 °F 86% 30.01 in 10.0 mi SSW 15.0 mph 23.0 mph N/A   Overcast